Regional Weather Roundup
Issued by NWS

Home | Current Version | Previous Version | Text Only | Print | Product List | Glossary Off
Versions: 1 2 3 4 5 6 7 8 9 10 11 12 13 14 15 16 17 18 19 20 21 22 23 24 25 26 27 28 29 30 31 32 33 34 35 36 37 38 39 40 41 42 43 44 45 46 47 48 49 50

000
ASUS43 KIND 280509
RWRIN

WEATHER ROUNDUP FOR INDIANA
NATIONAL WEATHER SERVICE INDIANAPOLIS IN
100 AM EDT THU AUG 28 2014

NOTE: "FAIR" INDICATES FEW OR NO CLOUDS BELOW 12,000 FEET WITH NO
SIGNIFICANT WEATHER AND/OR OBSTRUCTIONS TO VISIBILITY.

* - STATION DOES NOT REPORT WEATHER SUCH AS PRECIPITATION OR FOG.

+ - STATION NOT QUALITY CONTROLLED BY THE NATIONAL WEATHER SERVICE.
    USE DATA WITH CAUTION...ESPECIALLY DEWPOINT AND RELATIVE
    HUMIDITY OBSERVATIONS.

INZ001>003-010>013-019-020-280600-
NORTHWEST INDIANA

CITY           SKY/WX    TMP DP  RH WIND       PRES   REMARKS
GARY /AIRPORT/ CLEAR     70  62  75 E5        30.13R
KNOX *+        CLEAR     61  58  89 NE3       30.11F
LA PORTE +     PTCLDY    62  57  83 NE3       30.13F
MICHIGAN CITY+ CLEAR     61  61 100 CALM      30.12F
MONTICELLO +   CLEAR     64  61  91 NE3       30.11S
RENSSELAER +   CLEAR     63  61  94 NE5       30.12S
VALPARAISO     CLEAR     59  57  93 CALM      30.12F

$$

LMZ046-743>745-280600-
SOUTHERN LAKE MICHIGAN

STATION/POSITION TIME  TEMP WIND        PRES
                       AIR  DIR/SP/G
                 (UTC) (F)  (DEG/KT/KT) (MB)
MICHIGAN CITY    0500   66   50/  9/ 12   N/A

$$

INZ004-005-014>016-021>024-280600-
NORTH CENTRAL INDIANA

CITY           SKY/WX    TMP DP  RH WIND       PRES   REMARKS
GOSHEN         CLEAR     64  60  87 NE6       30.12S
LOGANSPORT +   CLEAR     63  59  88 N5        30.11F
PERU/GRISSOM   CLEAR     65  65 100 N2        30.11R
ROCHESTER +    CLEAR     64  61  88 N3        30.12S
SOUTH BEND     CLEAR     64  57  78 NE8       30.13S
WARSAW +       CLEAR     63  61  94 CALM      30.12S

$$

INZ006>009-017-018-025>027-280600-
NORTHEAST INDIANA

CITY           SKY/WX    TMP DP  RH WIND       PRES   REMARKS
ANGOLA *+      CLEAR     63  61  94 N3        30.13S
AUBURN +       CLEAR     61  57  88 CALM      30.12S
FORT WAYNE     PTCLDY    65  60  84 NE7       30.11S
HUNTINGTON +   CLEAR     64  61  91 N3        30.11S

$$

INZ028-029-035-036-043>045-051>053-280600-
WEST CENTRAL INDIANA

CITY           SKY/WX    TMP DP  RH WIND       PRES   REMARKS
GREENCASTLE +  CLEAR     70  68  94 CALM      30.09S
LAFAYETTE      CLEAR     66  60  81 NE8       30.10S
TERRE HAUTE    CLEAR     70  67  90 N3        30.08S

$$

INZ030>032-037>040-046>048-054>057-064-065-280600-
CENTRAL INDIANA

CITY           SKY/WX    TMP DP  RH WIND       PRES   REMARKS
CP ATTERBURY + CLEAR     70  64  83 CALM      30.08F
FRANKFORT +    CLEAR     66  66 100 NE5       30.12S
GREENWOOD *+   PTCLDY    72  66  83 NE6       30.08F
INDIANAPOLIS   PTCLDY    73  63  70 NE7       30.07S
-EAGLE CREEK   CLEAR     71  63  75 N3        30.08S
KOKOMO *+      CLEAR     64  61  88 NE5       30.11R
MARION +       CLEAR     65  60  84 NE5       30.11S
MT COMFORT *+  CLEAR     66 N/A N/A N3        30.09F
SHELBYVILLE    CLEAR     71  66  84 N6        30.07F
ZIONSVILLE +   CLEAR     66  62  85 N6        30.11S

$$

INZ033-034-041-042-049-050-058-059-280600-
EAST CENTRAL INDIANA

CITY           SKY/WX    TMP DP  RH WIND       PRES   REMARKS
MUNCIE         CLEAR     67  61  81 E7        30.09S

$$

INZ060-061-067>069-081>083-085>088-280600-
SOUTHWEST INDIANA

CITY           SKY/WX    TMP DP  RH WIND       PRES   REMARKS
EVANSVILLE     CLOUDY    78  70  76 CALM      30.04F
WASHINGTON +   CLEAR     73  73 100 CALM      30.05S

$$

INZ062-063-066-070>080-084-089>092-280600-
SOUTH CENTRAL AND SOUTHEAST INDIANA

CITY           SKY/WX    TMP DP  RH WIND       PRES   REMARKS
BLOOMINGTON    CLEAR     74  70  87 E3        30.08S
SEYMOUR +      CLEAR     75  64  69 NE5       30.06

$$



USA.gov is the U.S. government's official web portal to all federal, state and local government web resources and services.